Location: Bruderhein
(53.8035°N, 112.9265°W)
Time: 18:16:35
(UTC+00:00)

EO-79 - Visible Passes

Search period start: 28 March 2023 00:00
Search period end: 07 April 2023 00:00
Orbit: 581 x 596 km, 98.0° (Epoch: 27 March)

Date Brightness Start Highest point End Pass type
(mag) Time Alt. Az. Time Alt. Az. Time Alt. Az.
28 Mar ? 08:33:58 10° NE 08:35:21 14° ENE 08:35:21 14° ENE visible
28 Mar ? 10:08:12 10° NNE 10:11:52 65° NNW 10:11:52 65° NNW visible
28 Mar ? 11:45:08 10° NNW 11:47:11 13° NW 11:48:23 12° WNW visible
29 Mar ? 08:41:14 10° NE 08:43:08 16° ENE 08:43:08 16° ENE visible
29 Mar ? 10:15:48 10° N 10:19:39 63° NW 10:19:39 63° NW visible
29 Mar ? 11:53:06 10° NNW 11:54:39 12° NW 11:56:10 10° WNW visible
30 Mar ? 08:48:35 10° NE 08:50:54 19° ENE 08:50:54 19° ENE visible
30 Mar ? 10:23:24 10° N 10:27:25 56° WNW 10:27:25 56° WNW visible
30 Mar ? 12:01:21 10° NW 12:02:06 10° NW 12:02:52 10° WNW visible
31 Mar ? 08:55:58 10° NE 08:58:39 22° ENE 08:58:39 22° ENE visible
31 Mar ? 10:31:00 10° N 10:35:02 48° WNW 10:35:10 48° WNW visible
01 Apr ? 09:03:21 10° NE 09:06:23 26° E 09:06:23 26° E visible
01 Apr ? 10:38:35 10° N 10:42:31 41° WNW 10:42:54 40° W visible
02 Apr ? 09:10:46 10° NNE 09:14:06 30° E 09:14:06 30° E visible
02 Apr ? 10:46:11 10° N 10:50:00 36° WNW 10:50:37 34° W visible
03 Apr ? 09:18:10 10° NNE 09:21:48 35° E 09:21:48 35° E visible
03 Apr ? 10:53:46 10° N 10:57:27 31° WNW 10:58:19 29° W visible
04 Apr ? 09:25:36 10° NNE 09:29:29 41° E 09:29:29 41° E visible
04 Apr ? 11:01:21 10° N 11:04:53 27° WNW 11:06:00 24° W visible
05 Apr ? 09:33:01 10° NNE 09:37:04 49° E 09:37:09 49° ESE visible
05 Apr ? 11:08:56 10° N 11:12:18 24° WNW 11:13:39 20° W visible
06 Apr ? 09:40:26 10° NNE 09:44:33 57° ESE 09:44:48 56° ESE visible
06 Apr ? 11:16:31 10° N 11:19:41 21° WNW 11:21:18 17° W visible
